This is the latest recevied weather packets stored in our database for station/object KO4LCK. If no packets are shown the sender has not sent any weather packets the latest 10 day(s).
| Time | Temp. | Humidity | Pressure | Rain* | Wind** | Luminosity | Snow |
|---|---|---|---|---|---|---|---|
| 1778007266 | 26.11° C | 38% | 1014.7 hPa | 0 mm | - | 494 W/m² | - |
| 1778006962 | 26.11° C | 36% | 1014.8 hPa | 0 mm | - | 662 W/m² | - |
| 1778006659 | 26.67° C | 35% | 1014.8 hPa | 0 mm | - | 618 W/m² | - |
| 1778006356 | 26.11° C | 34% | 1015 hPa | 0 mm | - | 743 W/m² | - |
| 1778006053 | 25.56° C | 34% | 1014.8 hPa | 0 mm | - | 817 W/m² | - |
| 1778005749 | 26.11° C | 34% | 1014.9 hPa | 0 mm | - | 388 W/m² | - |
| 1778005446 | 26.67° C | 37% | 1014.8 hPa | 0 mm | - | 496 W/m² | - |
| 1778005143 | 26.67° C | 37% | 1014.9 hPa | 0 mm | - | 589 W/m² | - |
| 1778004840 | 26.67° C | 38% | 1015.1 hPa | 0 mm | - | 719 W/m² | - |
| 1778004537 | 27.22° C | 36% | 1014.9 hPa | 0 mm | - | 832 W/m² | - |
| 1778004233 | 26.67° C | 35% | 1015 hPa | 0 mm | - | 916 W/m² | - |
| 1778003930 | 26.11° C | 34% | 1015 hPa | 0 mm | - | 808 W/m² | - |
| 1778003626 | 26.11° C | 35% | 1015.1 hPa | 0 mm | - | 651 W/m² | - |
| 1778003323 | 26.67° C | 34% | 1015 hPa | 0 mm | - | 472 W/m² | - |
| 1778003021 | 26.11° C | 35% | 1015.2 hPa | 0 mm | - | 876 W/m² | - |
| 1778002716 | 26.11° C | 35% | 1015.8 hPa | 0 mm | - | 901 W/m² | - |
| 1778002413 | 26.11° C | 34% | 1015.7 hPa | 0 mm | - | 735 W/m² | - |
| 1778002110 | 26.11° C | 35% | 1015.8 hPa | 0 mm | - | 697 W/m² | - |
| 1778001808 | 26.11° C | 37% | 1015.6 hPa | 0 mm | - | 879 W/m² | - |
| 1778001502 | 26.67° C | 39% | 1015.8 hPa | 0 mm | - | 882 W/m² | - |
| 1778001199 | 26.11° C | 44% | 1015.8 hPa | 0 mm | - | 831 W/m² | - |
| 1778000896 | 26.11° C | 39% | 1015.7 hPa | 0 mm | - | 713 W/m² | - |
| 1778000593 | 26.11° C | 40% | 1016 hPa | 0 mm | - | 872 W/m² | - |
| 1778000288 | 25.56° C | 37% | 1016 hPa | 0 mm | - | 790 W/m² | - |
| 1777999984 | 26.11° C | 38% | 1015.9 hPa | 0 mm | - | 723 W/m² | - |
* Rain latest hour (hover to see other rain measurements)
** Current wind speed in m/s (hover to see current wind gust speed)